Weather History for Ord, NE

Change the Weather History Date:

Sunday, June 16, 2013

  Actual Average Record
Temperature  
Mean Temperature 71 °F 70 °F  
Max Temperature 83 °F 81 °F 87 °F (2003)
Min Temperature 58 °F 58 °F 48 °F (2001)
Degree Days  
Heating Degree Days 0    
Month to date heating degree days 47  
Since 1 June heating degree days 47  
Since 1 July heating degree days 6873  
Cooling Degree Days 6    
Month to date cooling degree days 47  
Year to date cooling degree days 94  
Since 1 June cooling degree days 47  
Growing Degree Days 20 (Base 50)    
Moisture  
Dew Point 58 °F    
Average Humidity 66    
Maximum Humidity 93    
Minimum Humidity 39    
Precipitation  
Precipitation 0.23 in 0.15 in 5.26 in (1900)
Month to date precipitation 0.90 2.67  
Year to date precipitation 11.04 11.33  
Sea Level Pressure  
Sea Level Pressure 30.00 in    
Wind  
Wind Speed 6 mph (NNE)    
Max Wind Speed 29 mph    
Max Gust Speed 38 mph    
Visibility 9 miles    
Events Rain , Thunderstorm    
T = Trace of Precipitation, MM = Missing Value Source: NWS Daily Summary

Daily Weather History Graph

Daily Weather History Graph

Search for Another Location

Airport:

Trip Planner

Search our weather history database for the weather conditions in past years. The results will help you decide how hot, cold, wet, or windy it might be!

Date:

Astronomy

Jun. 16, 2013 Rise Set
Actual Time 6:00 AM CDT 9:12 PM CDT
Civil Twilight 5:26 AM CDT 9:46 PM CDT
Nautical Twilight 4:43 AM CDT 10:30 PM CDT
Astronomical Twilight 3:50 AM CDT 11:22 PM CDT
Moon 1:44 PM CDT (6/16) 1:12 AM CDT (6/16)
Length of Visible Light 16h 19m
Length of Day
15h 11m
Waxing Crescent, 50% of the Moon is Illuminated
Jun 16
Waxing Crescent
Jun 16
First Quarter
Jun 23
Full
Jun 29
Last Quarter
Jul 8
New

Hourly Weather History & Observations

Time (CDT) Temp. Heat Index Dew Point Humidity Pressure Visibility Wind Dir Wind Speed Gust Speed Precip Events Conditions
12:53 AM 66.9 °F - 60.1 °F 79% 29.96 in 10.0 mi North 3.5 mph - N/A   Mostly Cloudy
1:53 AM 64.9 °F - 60.1 °F 84% 29.98 in 10.0 mi Calm Calm - N/A   Clear
2:53 AM 64.9 °F - 60.1 °F 84% 29.98 in 10.0 mi Calm Calm - N/A   Clear
3:53 AM 63.0 °F - 59.0 °F 87% 29.98 in 10.0 mi Calm Calm - N/A   Clear
4:53 AM 61.0 °F - 57.9 °F 90% 29.99 in 10.0 mi NNW 5.8 mph - N/A   Clear
5:53 AM 59.0 °F - 57.0 °F 93% 29.99 in 9.0 mi NW 4.6 mph - N/A   Clear
6:53 AM 59.0 °F - 57.0 °F 93% 30.00 in 8.0 mi Calm Calm - N/A   Clear
7:53 AM 64.9 °F - 60.1 °F 84% 30.00 in 10.0 mi Calm Calm - N/A   Clear
8:53 AM 71.1 °F - 61.0 °F 70% 30.00 in 8.0 mi East 3.5 mph - N/A   Clear
9:53 AM 75.0 °F - 62.1 °F 64% 30.02 in 10.0 mi Calm Calm - N/A   Clear
10:53 AM 73.0 °F - 62.1 °F 68% 30.04 in 10.0 mi NW 5.8 mph - N/A   Clear
11:53 AM 73.9 °F - 62.1 °F 66% 29.97 in 10.0 mi SE 8.1 mph - N/A   Clear
12:53 PM 78.1 °F - 63.0 °F 60% 29.98 in 10.0 mi South 9.2 mph - N/A   Clear
1:53 PM 78.1 °F - 63.0 °F 60% 29.99 in 10.0 mi NW 11.5 mph - N/A   Mostly Cloudy
2:53 PM 80.1 °F 80.6 °F 57.9 °F 47% 30.00 in 10.0 mi North 10.4 mph - N/A   Clear
3:53 PM 81.0 °F 81.6 °F 60.1 °F 49% 29.99 in 10.0 mi East 16.1 mph 23.0 mph N/A   Clear
4:53 PM 78.1 °F - 51.1 °F 39% 29.94 in 10.0 mi ENE 17.3 mph - N/A   Clear
5:53 PM 75.0 °F - 48.9 °F 40% 29.99 in 10.0 mi NE 6.9 mph - N/A Thunderstorm Partly Cloudy
6:53 PM 72.0 °F - 54.0 °F 53% 30.02 in 10.0 mi NNE 9.2 mph - 0.00 in Rain , Thunderstorm Light Rain
7:01 PM 68.0 °F - 55.4 °F 64% 30.07 in 10.0 mi North 17.3 mph - 0.01 in Rain Light Rain
7:14 PM 68.0 °F - 55.4 °F 64% 30.09 in 9.0 mi North 16.1 mph 26.5 mph 0.01 in Rain Light Rain
7:29 PM 64.4 °F - 53.6 °F 68% 30.11 in 3.0 mi North 5.8 mph - 0.08 in Rain , Thunderstorm Heavy Thunderstorms and Rain
7:44 PM 62.6 °F - 55.4 °F 77% 30.12 in 5.0 mi North 9.2 mph - 0.13 in Rain Rain
7:53 PM 62.1 °F - 55.9 °F 80% 30.10 in 4.0 mi Calm Calm - 0.16 in Rain Rain
8:18 PM 64.4 °F - 55.4 °F 73% 29.93 in 6.0 mi SE 28.8 mph 36.8 mph 0.07 in Rain Light Rain
8:53 PM 66.0 °F - 55.0 °F 68% 29.94 in 10.0 mi SE 16.1 mph 27.6 mph 0.07 in   Clear
9:53 PM 64.9 °F - 55.9 °F 73% 29.96 in 10.0 mi South 6.9 mph - N/A   Clear
10:53 PM 62.1 °F - 57.0 °F 84% 30.00 in 10.0 mi Calm Calm - N/A   Clear
11:53 PM 59.0 °F - 57.0 °F 93% 30.00 in 10.0 mi Calm Calm - N/A   Clear